Regional Weather Roundup
Issued by NWS

Home | Current Version | Previous Version | Graphics & Text | Print | Product List | Glossary On
Versions: 1 2 3 4 5 6 7 8 9 10 11 12 13 14 15 16 17 18 19 20 21 22 23 24 25 26 27 28 29 30 31 32 33 34 35 36 37 38 39 40 41 42 43 44 45 46 47 48 49 50
000
ASUS43 KDMX 101206
RWRIA

WEATHER ROUNDUP FOR IOWA
NATIONAL WEATHER SERVICE DES MOINES IA
600 AM CST SAT DEC 10 2016

NOTE: "FAIR" INDICATES FEW OR NO CLOUDS BELOW 12,000 FEET WITH NO
SIGNIFICANT WEATHER AND/OR OBSTRUCTIONS TO VISIBILITY.

* - THESE STATIONS ARE NOT NWS STATIONS...THUS NOT UNDER NWS
QUALITY CONTROL.  THEY ALSO DO NOT REPORT WEATHER SUCH
AS PRECIPITATION OR FOG.

IAZ001>003-012>014-020>022-031>034-043>046-101300-
   NORTHWEST IOWA

CITY           SKY/WX    TMP DP  RH WIND       PRES   REMARKS
CARROLL *      CLOUDY    21  16  79 SE6       30.43F WCI  14
CHEROKEE *     FLURRIES  17  15  90 E5        30.44S WCI  10
DENISON *      CLOUDY    21  14  73 CALM      30.40F
LE MARS *      CLOUDY    18  14  86 E5        30.43F WCI  11
ORANGE CITY *  CLOUDY    14  12  92 CALM      30.41S
SHELDON *      FLURRIES  10   9  92 E9        30.41F WCI  -2
SIOUX CITY     CLOUDY    21  13  71 E5        30.43F WCI  15
6HR MIN TEMP:  20; 6HR MAX TEMP:  21; 6HR PCP: TRACE;

SPENCER        CLOUDY    10   6  84 NE8       30.45F WCI  -2
6HR MIN TEMP:  10; 6HR MAX TEMP:  15; 6HR PCP: TRACE;

STORM LAKE *   CLOUDY    16  12  86 E7        30.42F WCI   6
$$

IAZ055>058-069>071-079>083-090>094-101300-
   SOUTHWEST IOWA

CITY           SKY/WX    TMP DP  RH WIND       PRES   REMARKS
ATLANTIC *     CLOUDY    23  14  68 SE3       30.44F
AUDUBON *      CLOUDY    21  16  79 S3        30.42F
CLARINDA *     CLOUDY    25  16  68 S5        30.46F WCI  19
COUNCIL BLFS * CLOUDY    23  16  74 SE6       30.41F WCI  16
CRESTON *      CLOUDY    23  14  68 SE6       30.45F WCI  16
HARLAN  *      CLOUDY    21  16  79 SE5       30.46F WCI  15
LAMONI         CLOUDY    23  13  65 SE5       30.46S WCI  17
6HR MIN TEMP:  22; 6HR MAX TEMP:  23;

RED OAK *      CLOUDY    25  16  68 SE5       30.44F WCI  19
SHENANDOAH *   CLOUDY    25  16  68 SE6       30.44F WCI  18
$$

IAZ047>049-059>061-072>074-084-101300-
   CENTRAL IOWA

CITY           SKY/WX    TMP DP  RH WIND       PRES   REMARKS
AMES           CLOUDY    20  15  81 CALM      30.48S
6HR MIN TEMP:  20; 6HR MAX TEMP:  21;

ANKENY *       CLOUDY    21  14  73 SE5       30.50S WCI  15
BOONE *        CLOUDY    19  12  73 SE3       30.45S
CHARITON *     CLOUDY    23  16  74 SE3       30.48R
DES MOINES     CLOUDY    23  13  65 SE6       30.48S WCI  16
6HR MIN TEMP:  22; 6HR MAX TEMP:  23;

GRINNELL*      CLOUDY    20  15  79 CALM      30.48S
KNOXVILLE *    CLOUDY    21  14  73 CALM      30.48R
MARSHALLTOWN   CLOUDY    20  14  77 CALM      30.48S
6HR MIN TEMP:  17; 6HR MAX TEMP:  20;

NEWTON *       CLOUDY    19  16  86 CALM      30.48S
PELLA *        CLOUDY    22  15  72 CALM      30.51R
PERRY *        CLOUDY    21  17  83 SE6       30.46F WCI  14
$$

IAZ004>006-015-016-023>025-035-036-101300-
   NORTH CENTRAL IOWA

CITY           SKY/WX    TMP DP  RH WIND       PRES   REMARKS
ALGONA *       CLOUDY    10   7  85 NE9       30.46S WCI  -2
CLARION *      CLOUDY    16  12  86 NE6       30.47S WCI   7
ESTHERVILLE    CLOUDY     7   4  87 NE7       30.45F WCI  -5
6HR MIN TEMP:   7; 6HR MAX TEMP:  11; 6HR PCP: TRACE;

FORT DODGE *   CLOUDY    16  10  79 NE6       30.47S WCI   7
MASON CITY     CLOUDY    11   6  81 N7        30.49R WCI   0
6HR MIN TEMP:  10; 6HR MAX TEMP:  14;

FOREST CITY *  FLURRIES  12   9  85 N7        30.47S WCI   2
WEBSTER CITY * CLOUDY    19  14  79 N5        30.45R WCI  13
IOWA FALLS *   CLOUDY    19  15  82 CALM      30.47F
$$

IAZ007>011-017>019-026>030-037>042-050>054-066-101300-
   NORTHEAST IOWA

CITY           SKY/WX    TMP DP  RH WIND       PRES   REMARKS
CEDAR RAPIDS   CLOUDY    18  16  92 CALM      30.48F
6HR MIN TEMP:  15; 6HR MAX TEMP:  19;

CHARLES CITY * CLOUDY    12   9  85 N6        30.48S WCI   3
CLINTON *      PTCLDY    16  14  92 SW5       30.53R WCI   9
DECORAH *      CLOUDY    10   7  85 NW3       30.46R
DUBUQUE        MOCLDY    12  10  92 CALM      30.48S
6HR MIN TEMP:  12; 6HR MAX TEMP:  16;

MONTICELLO *   CLOUDY    14  12  92 CALM      30.50R
OELWEIN *      FLURRIES  16  14  93 CALM      30.48S
WATERLOO       CLOUDY    18  14  84 CALM      30.49S
6HR MIN TEMP:  14; 6HR MAX TEMP:  19;

$$

IAZ064-065-067-068-078-101300-
   EAST CENTRAL IOWA

CITY           SKY/WX    TMP DP  RH WIND       PRES   REMARKS
DAVENPORT      CLOUDY    19  14  81 SW6       30.53R WCI  11
6HR MIN TEMP:  18; 6HR MAX TEMP:  19;

IOWA CITY      CLOUDY    22  15  75 CALM      30.53F
6HR MIN TEMP:  20; 6HR MAX TEMP:  22;

MUSCATINE *    CLOUDY    21  16  79 CALM      30.54S
QUAD CITIES    CLOUDY    21  14  74 SW5       30.54R WCI  15
6HR MIN TEMP:  20; 6HR MAX TEMP:  21;

$$

IAZ062-063-075>077-085>089-095>099-101300-
   SOUTHEAST IOWA

CITY           SKY/WX    TMP DP  RH WIND       PRES   REMARKS
BURLINGTON     CLOUDY    22  15  75 CALM      30.52F
6HR MIN TEMP:  21; 6HR MAX TEMP:  22;

FAIRFIELD *    CLOUDY    23  14  68 CALM      30.51S
FORT MADISON * CLOUDY    23  16  74 CALM      30.53S
KEOKUK *       CLOUDY    23  18  80 CALM      30.52F
OSKALOOSA *    CLOUDY    22  17  81 CALM      30.51R
CENTERVILLE *  CLOUDY    23  14  68 CALM      30.51S
OTTUMWA        CLOUDY    22  14  71 SE3       30.50F
6HR MIN TEMP:  22; 6HR MAX TEMP:  22;

WASHINGTON *   CLOUDY    21  18  86 CALM      30.52S
$$

ABBREVIATIONS USED IN REMARKS
   TC - TEMPERATURES IN CELSIUS
  WCI - WIND CHILL INDEX
   HX - HEAT INDEX
  VSB - VISIBILITY
$$




USA.gov is the U.S. government's official web portal to all federal, state and local government web resources and services.